Location: Bretagne
(43.8474°N, 0.4650°W)
Time: 06:22:39
(UTC+00:00)

YAOGAN 1 - Pass Details

Date: 15 January 2026
Orbit: 605 x 607 km, 97.8° (Epoch: 10 February)

Event Time Altitude Azimuth Distance (km) Brightness Sun altitude
Rises 18:02:32 0° 152° (SSE) 2,851 5.9 -12.9°
Reaches altitude 10° 18:04:44 10° 148° (SSE) 1,952 5.0 -13.2°
Maximum altitude 18:08:50 50° 73° (ENE) 774 2.6 -13.9°
Drops below altitude 10° 18:12:58 10° 358° (N) 1,966 5.0 -14.7°
Sets 18:15:12 0° 353° (N) 2,874 5.9 -15.1°
